Location: Hysolar-Haus
(48.7436°N, 9.0965°E)
Time: 14:41:16
(UTC+00:00)

Explorer 7 - Pass Details

Date: 19 November 2019
Orbit: 485 x 680 km, 50.3° (Epoch: 06 December)

Event Time Altitude Azimuth Distance (km) Brightness Sun altitude
Exits shadow 04:12:58 65° 156° (SSE) 592 6.9 -23.6°
Drops below altitude 10° 04:16:31 10° 118° (ESE) 1,745 10.3 -23.0°
Sets 04:18:39 0° 116° (ESE) 2,605 11.4 -22.6°
